Погода в Космаче

Украина / Ивано-Франковская область     48°44′51″N   24°22′18″E
темп.,
°C
ветер,
м/с
пор.,
м/с
влажн.,
%
обл.,
%
осадки,
мм/ч
давл.,
гПа
погр.,
м
28 января, чт
чт2823:00−5зсз3894100 0.6 1012572
02:00−6зсз3793100 0.9 1011485
05:00−6з3891100 0.3 1011531
08:00−7з3891100 0.4 1011456
11:00−4зсз367384 0.0 1010724
14:00−1зсз356247 0.0 1009811
17:00−5юз22820 0.0 100837
20:00−7юз477750 0.0 1007234
29 января, пт
пт2923:00−5юз41572100 0.0 1005453
02:00−4юз4167299 0.0 1003476
05:00−4юз2676100 0.0 1001272
08:00−3юз31375100 0.0 1002486
11:000зюз2767100 0.0 1002508
14:00+2зюз396280 0.0 10021035
17:00−2ююз118135 0.0 100127
20:00−4ююз228659 0.0 100241
30 января, сб
сб3023:00−2ююв2385100 0.1 1000104
02:00−3ююв2289100 0.1 99766
05:00−1ююз1192100 0.1 99428
08:00+1зюз2691100 0.1 994191
11:00+3зюз267548 0.0 995873
14:00+4зюз5137143 0.1 9931173
17:00+2зюз8178062 0.7 9911470
20:00−2зсз5127850 1.1 995994
31 января, вс
вс3123:00−5зсз5118986 0.3 1000968
02:00−6з378492 0.6 1004707
05:00−7з258098 0.1 1006602
08:00−8юз117998 0.1 100852
11:00−3юв1154100 0.0 1008345
14:00−2вюв235099 0.0 1007628
17:00−5вюв257493 0.0 1005205
20:00−6вюв257792 0.0 1005218
1 февраля, пн
пн123:00−6юв2477100 0.0 1003258
02:00−5вюв2478100 0.0 1000253
05:00−6вюв2488100 0.0 997277
08:00−5в1295100 0.8 996223
11:00−4ссв1192100 1.7 995167
14:00−3ссз2392100 2.8 996283
17:00−3ссз2397100 0.3 999184
20:00−4зсз1295100 0.3 1003118